TimePDT,TemperatureF,Dew PointF,Humidity,Sea Level PressureIn,VisibilityMPH,Wind Direction,Wind SpeedMPH,Gust SpeedMPH,PrecipitationIn,Events,Conditions,WindDirDegrees,DateUTC
12:53 AM,66.0,44.1,45,29.73,10.0,NNW,5.8,-,N/A,,Clear,330,2013-07-21 07:53:00
1:53 AM,66.0,43.0,43,29.74,10.0,NW,3.5,-,N/A,,Clear,320,2013-07-21 08:53:00
2:53 AM,69.1,43.0,39,29.75,10.0,NW,11.5,-,N/A,,Clear,310,2013-07-21 09:53:00
3:53 AM,68.0,43.0,40,29.75,10.0,WNW,10.4,-,N/A,,Clear,300,2013-07-21 10:53:00
4:53 AM,64.9,43.0,45,29.75,10.0,NW,10.4,-,N/A,,Clear,310,2013-07-21 11:53:00
5:53 AM,66.0,42.1,42,29.77,10.0,NW,10.4,-,N/A,,Clear,310,2013-07-21 12:53:00
6:53 AM,70.0,44.1,39,29.78,10.0,WNW,11.5,-,N/A,,Clear,300,2013-07-21 13:53:00
7:53 AM,75.9,45.0,33,29.78,10.0,NNW,12.7,-,N/A,,Clear,330,2013-07-21 14:53:00
8:53 AM,80.1,46.0,30,29.78,10.0,NNW,12.7,-,N/A,,Clear,330,2013-07-21 15:53:00
9:53 AM,84.0,46.9,27,29.77,10.0,NNW,12.7,-,N/A,,Clear,340,2013-07-21 16:53:00
10:53 AM,87.1,48.0,26,29.76,10.0,North,10.4,17.3,N/A,,Clear,350,2013-07-21 17:53:00
11:53 AM,90.0,48.0,24,29.75,10.0,NW,5.8,-,N/A,,Clear,320,2013-07-21 18:53:00
12:53 PM,91.0,46.0,21,29.73,10.0,SE,8.1,-,N/A,,Clear,140,2013-07-21 19:53:00
1:53 PM,93.9,46.0,19,29.72,10.0,Variable,4.6,-,N/A,,Clear,0,2013-07-21 20:53:00
2:53 PM,96.1,43.0,16,29.70,10.0,SSW,5.8,-,N/A,,Clear,210,2013-07-21 21:53:00
3:53 PM,97.0,41.0,14,29.68,10.0,SW,10.4,-,N/A,,Clear,220,2013-07-21 22:53:00
4:53 PM,98.1,37.0,12,29.66,10.0,SSW,8.1,-,N/A,,Clear,200,2013-07-21 23:53:00
5:53 PM,98.1,39.0,13,29.64,10.0,SSW,8.1,-,N/A,,Clear,210,2013-07-22 00:53:00
6:53 PM,96.1,41.0,15,29.63,10.0,SSW,6.9,-,N/A,,Clear,210,2013-07-22 01:53:00
7:53 PM,91.0,42.1,18,29.63,10.0,SSW,5.8,-,N/A,,Clear,210,2013-07-22 02:53:00
8:53 PM,82.0,46.0,28,29.64,10.0,ESE,8.1,-,N/A,,Clear,110,2013-07-22 03:53:00
9:53 PM,81.0,44.1,27,29.66,10.0,Calm,Calm,-,N/A,,Clear,0,2013-07-22 04:53:00
10:53 PM,71.1,45.0,39,29.68,10.0,North,4.6,-,N/A,,Clear,10,2013-07-22 05:53:00
11:53 PM,70.0,45.0,41,29.69,10.0,WNW,5.8,-,N/A,,Clear,300,2013-07-22 06:53:00